| time (UTC) | temp C | wind direction | speed KPH | gust KPH | rain 1hr cm | rain 24hr cm | rain mn cm | humidity % | barometer mb |
| 20260508102828 | 21 | 38 | 1.6 | 8.0 | 0.00 | 0.00 | 0.00 | 88 | 1011.2 |
| 20260508102311 | 21 | 55 | 4.8 | 8.0 | 0.00 | 0.00 | 0.00 | 88 | 1011.2 |
| 20260508101813 | 21 | 46 | 3.2 | 6.4 | 0.00 | 0.00 | 0.00 | 88 | 1010.7 |
| 20260508101315 | 21 | 101 | 3.2 | 11.3 | 0.00 | 0.00 | 0.00 | 88 | 1010.7 |
| 20260508100819 | 21 | 94 | 4.8 | 11.3 | 0.00 | 0.00 | 0.00 | 88 | 1010.7 |
| 20260508100322 | 21 | 69 | 4.8 | 8.0 | 0.00 | 0.00 | 0.00 | 88 | 1010.6 |
| 20260508095825 | 21 | 85 | 3.2 | 14.5 | 0.00 | 0.00 | 0.00 | 88 | 1010.6 |
| 20260508095311 | 21 | 73 | 8.0 | 14.5 | 0.00 | 0.00 | 0.00 | 88 | 1010.6 |
| 20260508094834 | 21 | 96 | 4.8 | 9.7 | 0.00 | 0.00 | 0.00 | 88 | 1010.9 |
| 20260508094321 | 21 | 104 | 4.8 | 11.3 | 0.00 | 0.00 | 0.00 | 88 | 1010.9 |
| 20260508093845 | 21 | 61 | 1.6 | 11.3 | 0.00 | 0.00 | 0.00 | 88 | 1010.9 |
| 20260508093309 | 21 | 63 | 6.4 | 9.7 | 0.00 | 0.00 | 0.00 | 88 | 1010.9 |
| 20260508092812 | 21 | 66 | 6.4 | 11.3 | 0.00 | 0.00 | 0.00 | 88 | 1010.9 |
| 20260508092315 | 21 | 56 | 1.6 | 11.3 | 0.00 | 0.00 | 0.00 | 88 | 1010.9 |
| 20260508091818 | 21 | 92 | 4.8 | 9.7 | 0.00 | 0.00 | 0.00 | 88 | 1010.7 |
| 20260508091321 | 21 | 84 | 1.6 | 9.7 | 0.00 | 0.00 | 0.00 | 88 | 1010.7 |
| 20260508090824 | 21 | 90 | 3.2 | 9.7 | 0.00 | 0.00 | 0.00 | 88 | 1010.7 |
| 20260508090347 | 21 | 38 | 4.8 | 11.3 | 0.00 | 0.00 | 0.00 | 88 | 1010.7 |
| 20260508085808 | 21 | 91 | 6.4 | 11.3 | 0.00 | 0.00 | 0.00 | 88 | 1010.7 |
| 20260508085334 | 21 | 64 | 3.2 | 8.0 | 0.00 | 0.00 | 0.00 | 88 | 1010.7 |
| 20260508084836 | 21 | 80 | 3.2 | 8.0 | 0.00 | 0.00 | 0.00 | 88 | 1010.8 |
| 20260508084339 | 21 | 350 | 3.2 | 6.4 | 0.00 | 0.00 | 0.00 | 88 | 1010.8 |
| 20260508083842 | 21 | 5 | 3.2 | 8.0 | 0.00 | 0.00 | 0.00 | 88 | 1010.8 |
| 20260508083328 | 21 | 63 | 4.8 | 8.0 | 0.00 | 0.00 | 0.00 | 88 | 1010.7 |
| 20260508082810 | 21 | 51 | 3.2 | 11.3 | 0.00 | 0.00 | 0.00 | 88 | 1010.7 |
| 20260508082318 | 21 | 79 | 4.8 | 11.3 | 0.00 | 0.00 | 0.00 | 88 | 1010.7 |
| 20260508081821 | 21 | 84 | 1.6 | 4.8 | 0.00 | 0.00 | 0.00 | 88 | 1010.7 |
| 20260508081324 | 21 | 55 | 0.0 | 4.8 | 0.00 | 0.00 | 0.00 | 88 | 1010.7 |
| 20260508080807 | 21 | 44 | 3.2 | 4.8 | 0.00 | 0.00 | 0.00 | 88 | 1010.7 |
| 20260508080334 | 21 | 32 | 0.0 | 4.8 | 0.00 | 0.00 | 0.00 | 88 | 1010.8 |
| 20260508075816 | 21 | 19 | 0.0 | 4.8 | 0.00 | 0.00 | 0.00 | 88 | 1010.8 |
| 20260508075319 | 21 | 83 | 1.6 | 6.4 | 0.00 | 0.00 | 0.00 | 88 | 1010.8 |
| 20260508074822 | 21 | 34 | 3.2 | 8.0 | 0.00 | 0.00 | 0.00 | 88 | 1011.2 |
| 20260508074325 | 21 | 51 | 3.2 | 8.0 | 0.00 | 0.00 | 0.00 | 88 | 1011.2 |
| 20260508073828 | 21 | 346 | 1.6 | 4.8 | 0.00 | 0.00 | 0.00 | 88 | 1011.2 |
| 20260508073312 | 21 | 313 | 1.6 | 4.8 | 0.00 | 0.00 | 0.00 | 88 | 1010.8 |
| 20260508072816 | 21 | 9 | 1.6 | 4.8 | 0.00 | 0.00 | 0.00 | 88 | 1010.8 |
| 20260508072324 | 21 | 31 | 3.2 | 3.2 | 0.00 | 0.00 | 0.00 | 88 | 1010.8 |
| 20260508071830 | 21 | 55 | 0.0 | 3.2 | 0.00 | 0.00 | 0.00 | 88 | 1010.9 |
| 20260508071312 | 21 | 76 | 0.0 | 4.8 | 0.00 | 0.00 | 0.00 | 88 | 1010.9 |
| 20260508070815 | 21 | 49 | 1.6 | 4.8 | 0.00 | 0.00 | 0.00 | 88 | 1010.9 |
| 20260508070318 | 21 | 70 | 3.2 | 4.8 | 0.00 | 0.00 | 0.00 | 88 | 1011.1 |
| 20260508065821 | 21 | 69 | 1.6 | 6.4 | 0.00 | 0.00 | 0.00 | 88 | 1011.1 |
| 20260508065324 | 21 | 74 | 1.6 | 6.4 | 0.00 | 0.00 | 0.00 | 88 | 1011.1 |
| 20260508064827 | 21 | 35 | 1.6 | 6.4 | 0.00 | 0.00 | 0.00 | 88 | 1011.2 |
| 20260508064309 | 21 | 5 | 1.6 | 3.2 | 0.00 | 0.00 | 0.00 | 88 | 1011.2 |
| 20260508063812 | 21 | 41 | 0.0 | 3.2 | 0.00 | 0.00 | 0.00 | 88 | 1011.2 |
| 20260508063336 | 21 | 82 | 0.0 | 3.2 | 0.00 | 0.00 | 0.00 | 88 | 1011.4 |
| 20260508062819 | 21 | 82 | 1.6 | 1.6 | 0.00 | 0.00 | 0.00 | 88 | 1011.4 |
| 20260508062323 | 21 | 82 | 0.0 | 3.2 | 0.00 | 0.00 | 0.00 | 88 | 1011.4 |
| 20260508061810 | 21 | 90 | 1.6 | 3.2 | 0.00 | 0.00 | 0.00 | 87 | 1011.5 |
| 20260508061333 | 21 | 115 | 0.0 | 3.2 | 0.00 | 0.00 | 0.00 | 87 | 1011.5 |
| 20260508060816 | 21 | 105 | 1.6 | 3.2 | 0.00 | 0.00 | 0.00 | 88 | 1011.5 |
| 20260508060342 | 21 | 82 | 1.6 | 3.2 | 0.00 | 0.00 | 0.00 | 88 | 1011.6 |
| 20260508055828 | 21 | 82 | 1.6 | 3.2 | 0.00 | 0.00 | 0.00 | 88 | 1011.6 |
| 20260508055311 | 21 | 84 | 3.2 | 3.2 | 0.00 | 0.00 | 0.00 | 88 | 1011.6 |
| 20260508054814 | 21 | 75 | 1.6 | 3.2 | 0.00 | 0.00 | 0.00 | 87 | 1011.9 |
| 20260508054317 | 21 | 77 | 1.6 | 3.2 | 0.00 | 0.00 | 0.00 | 87 | 1011.9 |
| 20260508053820 | 21 | 36 | 1.6 | 3.2 | 0.00 | 0.00 | 0.00 | 87 | 1011.9 |
| 20260508053346 | 21 | 78 | 1.6 | 3.2 | 0.00 | 0.00 | 0.00 | 87 | 1011.8 |
| 20260508052807 | 21 | 78 | 0.0 | 3.2 | 0.00 | 0.00 | 0.00 | 87 | 1011.8 |
| 20260508052314 | 21 | 109 | 1.6 | 6.4 | 0.00 | 0.00 | 0.00 | 87 | 1011.8 |
| 20260508051818 | 21 | 101 | 1.6 | 6.4 | 0.00 | 0.00 | 0.00 | 87 | 1012.1 |
| 20260508051326 | 21 | 103 | 3.2 | 3.2 | 0.00 | 0.00 | 0.00 | 87 | 1012.1 |
| 20260508050808 | 21 | 72 | 3.2 | 8.0 | 0.00 | 0.00 | 0.00 | 87 | 1012.1 |
| 20260508050314 | 21 | 45 | 0.0 | 8.0 | 0.00 | 0.00 | 0.00 | 87 | 1012.1 |
| 20260508045837 | 21 | 48 | 1.6 | 6.4 | 0.00 | 0.00 | 0.00 | 87 | 1012.1 |
| 20260508045320 | 21 | 74 | 3.2 | 6.4 | 0.00 | 0.00 | 0.00 | 87 | 1012.1 |
| 20260508044823 | 21 | 55 | 1.6 | 4.8 | 0.00 | 0.00 | 0.00 | 87 | 1012.2 |
| 20260508044326 | 21 | 50 | 1.6 | 6.4 | 0.00 | 0.00 | 0.00 | 86 | 1012.2 |
| 20260508043809 | 21 | 38 | 0.0 | 6.4 | 0.00 | 0.00 | 0.00 | 86 | 1012.2 |
| 20260508043312 | 22 | 51 | 1.6 | 4.8 | 0.00 | 0.00 | 0.00 | 86 | 1012.2 |
| 20260508042814 | 22 | 71 | 3.2 | 11.3 | 0.00 | 0.00 | 0.00 | 86 | 1012.2 |
| 20260508042339 | 22 | 54 | 3.2 | 11.3 | 0.00 | 0.00 | 0.00 | 86 | 1012.2 |
| 20260508041841 | 22 | 40 | 3.2 | 8.0 | 0.00 | 0.00 | 0.00 | 86 | 1012.4 |
| 20260508041327 | 22 | 63 | 1.6 | 8.0 | 0.00 | 0.00 | 0.00 | 85 | 1012.4 |
| 20260508040814 | 22 | 58 | 3.2 | 14.5 | 0.00 | 0.00 | 0.00 | 85 | 1012.4 |
| 20260508040337 | 22 | 355 | 4.8 | 14.5 | 0.00 | 0.00 | 0.00 | 85 | 1012.3 |
| 20260508035819 | 22 | 39 | 6.4 | 8.0 | 0.00 | 0.00 | 0.00 | 85 | 1012.3 |
| 20260508035345 | 22 | 9 | 3.2 | 8.0 | 0.00 | 0.00 | 0.00 | 84 | 1012.3 |
| 20260508034828 | 22 | 28 | 3.2 | 8.0 | 0.00 | 0.00 | 0.00 | 84 | 1012.6 |
| 20260508034310 | 22 | 44 | 4.8 | 9.7 | 0.00 | 0.00 | 0.00 | 84 | 1012.6 |
| 20260508033813 | 22 | 49 | 4.8 | 9.7 | 0.00 | 0.00 | 0.00 | 85 | 1012.6 |
| 20260508033317 | 22 | 52 | 1.6 | 8.0 | 0.00 | 0.00 | 0.00 | 85 | 1012.5 |
| 20260508032820 | 22 | 22 | 3.2 | 11.3 | 0.00 | 0.00 | 0.00 | 85 | 1012.5 |
| 20260508032324 | 22 | 50 | 6.4 | 11.3 | 0.00 | 0.00 | 0.00 | 85 | 1012.5 |
| 20260508031830 | 22 | 39 | 3.2 | 8.0 | 0.00 | 0.00 | 0.00 | 85 | 1012.3 |
| 20260508031316 | 23 | 11 | 3.2 | 8.0 | 0.00 | 0.00 | 0.00 | 85 | 1012.3 |
| 20260508030820 | 23 | 40 | 4.8 | 8.0 | 0.00 | 0.00 | 0.00 | 85 | 1012.3 |
| 20260508030310 | 23 | 26 | 1.6 | 6.4 | 0.00 | 0.00 | 0.00 | 85 | 1012.2 |
| 20260508025813 | 23 | 23 | 3.2 | 4.8 | 0.00 | 0.00 | 0.00 | 85 | 1012.2 |
| 20260508025316 | 23 | 355 | 1.6 | 3.2 | 0.00 | 0.00 | 0.00 | 85 | 1012.2 |
| 20260508024839 | 23 | 97 | 0.0 | 3.2 | 0.00 | 0.00 | 0.00 | 85 | 1012.2 |
| 20260508024322 | 23 | 84 | 0.0 | 3.2 | 0.00 | 0.00 | 0.00 | 84 | 1012.2 |
| 20260508023827 | 23 | 59 | 0.0 | 3.2 | 0.00 | 0.00 | 0.00 | 84 | 1012.2 |
| 20260508023310 | 23 | 26 | 0.0 | 3.2 | 0.00 | 0.00 | 0.00 | 84 | 1012.2 |
| 20260508022813 | 23 | 26 | 1.6 | 3.2 | 0.00 | 0.00 | 0.00 | 84 | 1012.2 |
| 20260508022316 | 23 | 81 | 0.0 | 4.8 | 0.00 | 0.00 | 0.00 | 84 | 1012.2 |
| 20260508021819 | 23 | 80 | 1.6 | 6.4 | 0.00 | 0.00 | 0.00 | 84 | 1011.7 |
| 20260508021323 | 23 | 46 | 3.2 | 6.4 | 0.00 | 0.00 | 0.00 | 84 | 1011.7 |
| 20260508020809 | 23 | 88 | 1.6 | 6.4 | 0.00 | 0.00 | 0.00 | 84 | 1011.7 |
| 20260508020320 | 23 | 62 | 4.8 | 6.4 | 0.00 | 0.00 | 0.00 | 84 | 1011.7 |
| 20260508015825 | 23 | 46 | 1.6 | 4.8 | 0.00 | 0.00 | 0.00 | 84 | 1011.7 |
| 20260508015328 | 23 | 338 | 1.6 | 4.8 | 0.00 | 0.00 | 0.00 | 84 | 1011.7 |
| 20260508014811 | 23 | 23 | 1.6 | 4.8 | 0.00 | 0.00 | 0.00 | 84 | 1011.4 |
| 20260508014337 | 23 | 355 | 0.0 | 3.2 | 0.00 | 0.00 | 0.00 | 84 | 1011.4 |
| 20260508013820 | 23 | 78 | 0.0 | 3.2 | 0.00 | 0.00 | 0.00 | 84 | 1011.4 |
| 20260508013323 | 23 | 72 | 1.6 | 3.2 | 0.00 | 0.00 | 0.00 | 84 | 1011.4 |
| 20260508012827 | 23 | 67 | 0.0 | 3.2 | 0.00 | 0.00 | 0.00 | 84 | 1011.4 |
| 20260508012310 | 23 | 35 | 1.6 | 4.8 | 0.00 | 0.00 | 0.00 | 84 | 1011.4 |
| 20260508011813 | 23 | 70 | 1.6 | 4.8 | 0.00 | 0.00 | 0.00 | 84 | 1011.1 |
| 20260508011316 | 23 | 45 | 0.0 | 8.0 | 0.00 | 0.00 | 0.00 | 84 | 1011.1 |
| 20260508010820 | 23 | 45 | 1.6 | 9.7 | 0.00 | 0.00 | 0.00 | 84 | 1011.1 |
| 20260508010328 | 23 | 48 | 4.8 | 9.7 | 0.00 | 0.00 | 0.00 | 84 | 1011.2 |
| 20260508005811 | 23 | 5 | 1.6 | 8.0 | 0.00 | 0.00 | 0.00 | 84 | 1011.2 |
| 20260508005314 | 23 | 35 | 3.2 | 8.0 | 0.00 | 0.00 | 0.00 | 83 | 1011.2 |
| 20260508004818 | 23 | 355 | 3.2 | 4.8 | 0.00 | 0.00 | 0.00 | 83 | 1010.9 |
| 20260508004321 | 23 | 26 | 1.6 | 8.0 | 0.00 | 0.00 | 0.00 | 83 | 1010.9 |
| 20260508003827 | 23 | 35 | 4.8 | 8.0 | 0.00 | 0.00 | 0.00 | 83 | 1010.9 |
| 20260508003310 | 23 | 57 | 1.6 | 4.8 | 0.00 | 0.00 | 0.00 | 83 | 1011.0 |
| 20260508002832 | 24 | 47 | 1.6 | 4.8 | 0.00 | 0.00 | 0.00 | 83 | 1011.0 |
| 20260508002314 | 24 | 35 | 1.6 | 6.4 | 0.00 | 0.00 | 0.00 | 83 | 1011.0 |
| 20260508001838 | 24 | 99 | 1.6 | 8.0 | 0.00 | 0.00 | 0.00 | 83 | 1011.0 |
| 20260508001319 | 24 | 12 | 3.2 | 8.0 | 0.00 | 0.00 | 0.00 | 82 | 1011.0 |
| 20260508000823 | 24 | 35 | 0.0 | 6.4 | 0.00 | 0.00 | 0.00 | 82 | 1011.0 |
| 20260508000312 | 24 | 32 | 1.6 | 6.4 | 0.00 | 0.00 | 0.00 | 82 | 1011.0 |
| 20260507235815 | 24 | 30 | 0.0 | 6.4 | 0.00 | 0.00 | 0.00 | 82 | 1011.0 |
| 20260507235319 | 24 | 5 | 1.6 | 6.4 | 0.00 | 0.00 | 0.00 | 82 | 1011.0 |
| 20260507234843 | 24 | 12 | 3.2 | 6.4 | 0.00 | 0.00 | 0.00 | 82 | 1011.0 |
| 20260507234326 | 24 | 14 | 3.2 | 6.4 | 0.00 | 0.00 | 0.00 | 82 | 1011.0 |
| 20260507233828 | 24 | 14 | 1.6 | 4.8 | 0.00 | 0.00 | 0.00 | 81 | 1011.0 |
| 20260507233311 | 24 | 5 | 1.6 | 8.0 | 0.00 | 0.00 | 0.00 | 81 | 1010.9 |
| 20260507232818 | 24 | 19 | 1.6 | 8.0 | 0.00 | 0.00 | 0.00 | 81 | 1010.9 |
| 20260507232321 | 24 | 47 | 1.6 | 9.7 | 0.00 | 0.00 | 0.00 | 81 | 1010.9 |
| 20260507231824 | 24 | 355 | 6.4 | 9.7 | 0.00 | 0.00 | 0.00 | 81 | 1010.7 |
| 20260507231327 | 24 | 45 | 6.4 | 11.3 | 0.00 | 0.00 | 0.00 | 81 | 1010.7 |
| 20260507230809 | 24 | 36 | 4.8 | 11.3 | 0.00 | 0.00 | 0.00 | 81 | 1010.7 |
| 20260507230332 | 24 | 42 | 3.2 | 6.4 | 0.00 | 0.00 | 0.00 | 81 | 1011.1 |
| 20260507225819 | 24 | 9 | 1.6 | 6.4 | 0.00 | 0.00 | 0.00 | 82 | 1011.1 |
| 20260507225323 | 24 | 26 | 0.0 | 6.4 | 0.00 | 0.00 | 0.00 | 81 | 1011.1 |
| 20260507224827 | 24 | 38 | 1.6 | 6.4 | 0.00 | 0.00 | 0.00 | 81 | 1011.0 |
| 20260507224309 | 24 | 5 | 1.6 | 6.4 | 0.00 | 0.00 | 0.00 | 81 | 1011.0 |
| 20260507223812 | 24 | 355 | 4.8 | 6.4 | 0.00 | 0.00 | 0.00 | 81 | 1011.0 |
| 20260507223315 | 24 | 344 | 1.6 | 6.4 | 0.00 | 0.00 | 0.00 | 81 | 1010.7 |
| 20260507222818 | 24 | 38 | 4.8 | 6.4 | 0.00 | 0.00 | 0.00 | 81 | 1010.7 |
| 20260507222324 | 24 | 355 | 3.2 | 8.0 | 0.00 | 0.00 | 0.00 | 82 | 1010.7 |
| 20260507221810 | 24 | 360 | 1.6 | 8.0 | 0.00 | 0.00 | 0.00 | 82 | 1010.6 |
| 20260507221314 | 24 | 336 | 1.6 | 4.8 | 0.00 | 0.00 | 0.00 | 82 | 1010.6 |
| 20260507220820 | 23 | 46 | 0.0 | 4.8 | 0.00 | 0.00 | 0.00 | 83 | 1010.6 |
| 20260507220327 | 23 | 348 | 1.6 | 4.8 | 0.00 | 0.00 | 0.00 | 82 | 1010.7 |
| 20260507215809 | 23 | 11 | 1.6 | 4.8 | 0.00 | 0.00 | 0.00 | 82 | 1010.7 |
| 20260507215333 | 23 | 36 | 1.6 | 4.8 | 0.00 | 0.00 | 0.00 | 82 | 1010.7 |
| 20260507214836 | 23 | 14 | 1.6 | 4.8 | 0.00 | 0.00 | 0.00 | 83 | 1010.6 |
| 20260507214319 | 23 | 342 | 3.2 | 4.8 | 0.00 | 0.00 | 0.00 | 83 | 1010.6 |
| 20260507213823 | 23 | 36 | 4.8 | 6.4 | 0.00 | 0.00 | 0.00 | 83 | 1010.6 |
| 20260507213326 | 23 | 40 | 3.2 | 6.4 | 0.00 | 0.00 | 0.00 | 83 | 1010.6 |
| 20260507212808 | 23 | 5 | 1.6 | 6.4 | 0.00 | 0.00 | 0.00 | 83 | 1010.6 |
| 20260507212314 | 23 | 314 | 1.6 | 6.4 | 0.00 | 0.00 | 0.00 | 83 | 1010.6 |
| 20260507211818 | 23 | 5 | 1.6 | 6.4 | 0.00 | 0.00 | 0.00 | 84 | 1010.9 |
| 20260507211321 | 22 | 61 | 3.2 | 6.4 | 0.00 | 0.00 | 0.00 | 85 | 1010.9 |
| 20260507210845 | 22 | 71 | 3.2 | 4.8 | 0.00 | 0.00 | 0.00 | 84 | 1010.9 |
| 20260507210306 | 22 | 33 | 3.2 | 6.4 | 0.00 | 0.00 | 0.00 | 84 | 1010.8 |
| 20260507205833 | 22 | 40 | 3.2 | 6.4 | 0.00 | 0.00 | 0.00 | 85 | 1010.8 |
| 20260507205322 | 22 | 90 | 1.6 | 6.4 | 0.00 | 0.00 | 0.00 | 85 | 1010.8 |
| 20260507204806 | 22 | 50 | 3.2 | 6.4 | 0.00 | 0.00 | 0.00 | 84 | 1011.0 |
| 20260507204333 | 22 | 74 | 3.2 | 6.4 | 0.00 | 0.00 | 0.00 | 84 | 1011.0 |
| 20260507203836 | 22 | 5 | 3.2 | 9.7 | 0.00 | 0.00 | 0.00 | 84 | 1011.0 |
| 20260507203322 | 22 | 16 | 4.8 | 9.7 | 0.00 | 0.00 | 0.00 | 84 | 1011.0 |
| 20260507202825 | 22 | 351 | 4.8 | 9.7 | 0.00 | 0.00 | 0.00 | 84 | 1011.0 |
| 20260507202328 | 22 | 38 | 1.6 | 8.0 | 0.00 | 0.00 | 0.00 | 85 | 1011.0 |
| 20260507201810 | 22 | 360 | 1.6 | 9.7 | 0.00 | 0.00 | 0.00 | 85 | 1011.1 |
| 20260507201313 | 22 | 13 | 4.8 | 11.3 | 0.00 | 0.00 | 0.00 | 85 | 1011.1 |
| 20260507200816 | 22 | 5 | 6.4 | 11.3 | 0.00 | 0.00 | 0.00 | 85 | 1011.1 |
| 20260507200319 | 22 | 9 | 3.2 | 9.7 | 0.00 | 0.00 | 0.00 | 85 | 1011.1 |
| 20260507195825 | 22 | 360 | 1.6 | 6.4 | 0.00 | 0.00 | 0.00 | 85 | 1011.1 |
| 20260507195312 | 22 | 32 | 3.2 | 6.4 | 0.00 | 0.00 | 0.00 | 85 | 1011.1 |
| 20260507194816 | 22 | 305 | 3.2 | 9.7 | 0.00 | 0.00 | 0.00 | 85 | 1011.1 |
| 20260507194319 | 22 | 52 | 4.8 | 9.7 | 0.00 | 0.00 | 0.00 | 85 | 1011.1 |
| 20260507193823 | 22 | 14 | 4.8 | 8.0 | 0.00 | 0.00 | 0.00 | 85 | 1011.1 |
| 20260507193327 | 22 | 53 | 1.6 | 6.4 | 0.00 | 0.00 | 0.00 | 86 | 1011.2 |
| 20260507192810 | 22 | 5 | 3.2 | 9.7 | 0.00 | 0.00 | 0.00 | 85 | 1011.2 |
| 20260507192313 | 22 | 51 | 3.2 | 11.3 | 0.00 | 0.00 | 0.00 | 86 | 1011.2 |
| 20260507191816 | 22 | 32 | 6.4 | 11.3 | 0.00 | 0.00 | 0.00 | 86 | 1011.4 |
| 20260507191322 | 22 | 342 | 4.8 | 9.7 | 0.00 | 0.00 | 0.00 | 86 | 1011.4 |
| 20260507190825 | 22 | 34 | 6.4 | 9.7 | 0.00 | 0.00 | 0.00 | 86 | 1011.4 |
| 20260507190347 | 22 | 305 | 4.8 | 8.0 | 0.00 | 0.00 | 0.00 | 86 | 1011.5 |
| 20260507185809 | 22 | 33 | 4.8 | 8.0 | 0.00 | 0.00 | 0.00 | 87 | 1011.5 |
| 20260507185319 | 22 | 25 | 3.2 | 9.7 | 0.00 | 0.00 | 0.00 | 87 | 1011.5 |
| 20260507184822 | 22 | 42 | 6.4 | 9.7 | 0.00 | 0.00 | 0.00 | 88 | 1011.6 |
| 20260507184346 | 22 | 331 | 3.2 | 11.3 | 0.00 | 0.00 | 0.00 | 88 | 1011.6 |
| 20260507183829 | 22 | 324 | 1.6 | 11.3 | 0.00 | 0.00 | 0.00 | 88 | 1011.6 |
| 20260507183312 | 21 | 300 | 1.6 | 9.7 | 0.00 | 0.00 | 0.00 | 89 | 1011.7 |
| 20260507182816 | 21 | 49 | 6.4 | 11.3 | 0.00 | 0.00 | 0.00 | 89 | 1011.7 |
| 20260507182320 | 21 | 36 | 3.2 | 11.3 | 0.00 | 0.00 | 0.00 | 89 | 1011.7 |
| 20260507181823 | 21 | 355 | 1.6 | 9.7 | 0.00 | 0.00 | 0.00 | 90 | 1012.0 |
| 20260507181309 | 21 | 32 | 3.2 | 11.3 | 0.00 | 0.00 | 0.00 | 90 | 1012.0 |
| 20260507180815 | 21 | 36 | 4.8 | 11.3 | 0.00 | 0.00 | 0.00 | 90 | 1012.0 |
| 20260507180319 | 21 | 19 | 3.2 | 8.0 | 0.00 | 0.00 | 0.00 | 90 | 1012.1 |
| 20260507175821 | 21 | 355 | 3.2 | 9.7 | 0.00 | 0.00 | 0.00 | 90 | 1012.1 |
| 20260507175329 | 21 | 46 | 6.4 | 9.7 | 0.00 | 0.00 | 0.00 | 89 | 1012.1 |
| 20260507174811 | 21 | 309 | 3.2 | 9.7 | 0.00 | 0.00 | 0.00 | 89 | 1011.9 |
| 20260507174334 | 21 | 22 | 4.8 | 8.0 | 0.00 | 0.00 | 0.00 | 90 | 1011.9 |
| 20260507173817 | 21 | 28 | 4.8 | 9.7 | 0.00 | 0.00 | 0.00 | 90 | 1011.9 |
| 20260507173324 | 21 | 355 | 3.2 | 11.3 | 0.00 | 0.00 | 0.00 | 90 | 1012.1 |
| 20260507172807 | 21 | 39 | 8.0 | 11.3 | 0.00 | 0.00 | 0.00 | 90 | 1012.1 |
| 20260507172313 | 21 | 38 | 4.8 | 9.7 | 0.00 | 0.00 | 0.00 | 90 | 1012.1 |
| 20260507171817 | 21 | 10 | 6.4 | 9.7 | 0.00 | 0.00 | 0.00 | 90 | 1012.2 |
| 20260507171320 | 21 | 30 | 6.4 | 11.3 | 0.00 | 0.00 | 0.00 | 89 | 1012.2 |
| 20260507170823 | 21 | 17 | 4.8 | 16.1 | 0.00 | 0.00 | 0.00 | 89 | 1012.2 |
| 20260507170305 | 21 | 27 | 4.8 | 16.1 | 0.00 | 0.00 | 0.00 | 88 | 1012.2 |
| 20260507165817 | 21 | 313 | 6.4 | 11.3 | 0.00 | 0.00 | 0.00 | 88 | 1012.2 |
| 20260507165320 | 22 | 341 | 6.4 | 16.1 | 0.00 | 0.00 | 0.00 | 88 | 1012.2 |
| 20260507164823 | 22 | 36 | 3.2 | 16.1 | 0.00 | 0.00 | 0.00 | 87 | 1012.2 |
| 20260507164325 | 22 | 340 | 4.8 | 16.1 | 0.00 | 0.00 | 0.00 | 88 | 1012.2 |
| 20260507163828 | 22 | 355 | 3.2 | 11.3 | 0.00 | 0.00 | 0.00 | 89 | 1012.2 |
| 20260507163311 | 22 | 355 | 3.2 | 11.3 | 0.00 | 0.00 | 0.00 | 89 | 1012.2 |
| 20260507162815 | 22 | 344 | 4.8 | 14.5 | 0.00 | 0.00 | 0.00 | 89 | 1012.2 |
| 20260507162319 | 22 | 9 | 4.8 | 14.5 | 0.00 | 0.00 | 0.00 | 90 | 1012.2 |
| 20260507161823 | 21 | 16 | 8.0 | 14.5 | 0.00 | 0.00 | 0.00 | 90 | 1012.1 |
| 20260507161326 | 21 | 13 | 4.8 | 8.0 | 0.00 | 0.00 | 0.00 | 91 | 1012.1 |
| 20260507160811 | 21 | 40 | 4.8 | 8.0 | 0.00 | 0.00 | 0.00 | 92 | 1012.1 |
| 20260507160318 | 21 | 38 | 1.6 | 8.0 | 0.00 | 0.00 | 0.00 | 92 | 1012.2 |
| 20260507155825 | 21 | 19 | 4.8 | 9.7 | 0.00 | 0.00 | 0.00 | 91 | 1012.2 |
| 20260507155310 | 21 | 53 | 3.2 | 9.7 | 0.00 | 0.00 | 0.00 | 91 | 1012.2 |
| 20260507154813 | 21 | 29 | 3.2 | 9.7 | 0.00 | 0.00 | 0.00 | 92 | 1012.1 |
| 20260507154316 | 21 | 20 | 6.4 | 9.7 | 0.00 | 0.00 | 0.00 | 92 | 1012.1 |
| 20260507153818 | 21 | 29 | 6.4 | 11.3 | 0.00 | 0.00 | 0.00 | 92 | 1012.1 |
| 20260507153342 | 21 | 5 | 6.4 | 11.3 | 0.00 | 0.00 | 0.00 | 92 | 1012.1 |
| 20260507152824 | 21 | 15 | 6.4 | 9.7 | 0.00 | 0.00 | 0.00 | 92 | 1012.1 |
| 20260507152328 | 21 | 49 | 3.2 | 9.7 | 0.00 | 0.00 | 0.00 | 92 | 1012.1 |
| 20260507151811 | 22 | 325 | 3.2 | 11.3 | 0.00 | 0.00 | 0.00 | 92 | 1012.1 |
| 20260507151315 | 22 | 83 | 6.4 | 11.3 | 0.00 | 0.00 | 0.00 | 92 | 1012.1 |
| 20260507150819 | 22 | 60 | 3.2 | 11.3 | 0.00 | 0.00 | 0.00 | 92 | 1012.1 |
| 20260507150341 | 22 | 351 | 4.8 | 11.3 | 0.00 | 0.00 | 0.00 | 92 | 1012.0 |
| 20260507145810 | 22 | 25 | 6.4 | 12.9 | 0.00 | 0.00 | 0.00 | 91 | 1012.0 |
| 20260507145313 | 22 | 340 | 8.0 | 9.7 | 0.00 | 0.00 | 0.00 | 91 | 1012.0 |
| 20260507144817 | 22 | 36 | 3.2 | 8.0 | 0.00 | 0.00 | 0.00 | 92 | 1011.8 |
| 20260507144321 | 22 | 318 | 3.2 | 8.0 | 0.00 | 0.00 | 0.00 | 92 | 1011.8 |
| 20260507143823 | 22 | 51 | 3.2 | 8.0 | 0.00 | 0.00 | 0.00 | 92 | 1011.8 |
| 20260507143347 | 22 | 355 | 4.8 | 9.7 | 0.00 | 0.00 | 0.00 | 92 | 1011.7 |
| 20260507142811 | 22 | 59 | 1.6 | 9.7 | 0.00 | 0.00 | 0.00 | 92 | 1011.7 |
| 20260507142318 | 22 | 15 | 4.8 | 9.7 | 0.00 | 0.00 | 0.00 | 91 | 1011.7 |
| 20260507141842 | 22 | 11 | 6.4 | 9.7 | 0.00 | 0.00 | 0.00 | 91 | 1011.6 |
| 20260507141325 | 23 | 5 | 6.4 | 8.0 | 0.00 | 0.00 | 0.00 | 91 | 1011.6 |
| 20260507140810 | 23 | 5 | 3.2 | 11.3 | 0.00 | 0.00 | 0.00 | 90 | 1011.6 |
| 20260507140313 | 23 | 19 | 6.4 | 11.3 | 0.00 | 0.00 | 0.00 | 89 | 1011.5 |
| 20260507135820 | 24 | 35 | 6.4 | 17.7 | 0.00 | 0.00 | 0.00 | 88 | 1011.5 |
| 20260507135326 | 25 | 328 | 4.8 | 17.7 | 0.00 | 0.00 | 0.00 | 89 | 1011.5 |
| 20260507134829 | 25 | 311 | 1.6 | 4.8 | 0.00 | 0.00 | 0.00 | 91 | 1011.2 |
| 20260507134315 | 25 | 273 | 0.0 | 1.6 | 0.00 | 0.00 | 0.00 | 92 | 1011.2 |
| 20260507133819 | 25 | 273 | 0.0 | 3.2 | 0.00 | 0.00 | 0.00 | 91 | 1011.2 |
| 20260507133325 | 25 | 210 | 0.0 | 4.8 | 0.00 | 0.00 | 0.00 | 91 | 1011.1 |
| 20260507132828 | 25 | 254 | 1.6 | 4.8 | 0.00 | 0.00 | 0.00 | 91 | 1011.1 |
| 20260507132310 | 25 | 173 | 0.0 | 3.2 | 0.00 | 0.00 | 0.00 | 91 | 1011.1 |
| 20260507131814 | 25 | 218 | 0.0 | 3.2 | 0.00 | 0.00 | 0.00 | 91 | 1011.2 |
| 20260507131318 | 25 | 221 | 0.0 | 3.2 | 0.00 | 0.00 | 0.00 | 91 | 1011.2 |
| 20260507130822 | 25 | 217 | 0.0 | 3.2 | 0.00 | 0.00 | 0.00 | 91 | 1011.2 |
| 20260507130312 | 25 | 282 | 0.0 | 3.2 | 0.00 | 0.00 | 0.00 | 91 | 1011.1 |
| 20260507125816 | 25 | 248 | 0.0 | 3.2 | 0.00 | 0.00 | 0.00 | 91 | 1011.1 |
| 20260507125319 | 25 | 244 | 0.0 | 3.2 | 0.00 | 0.00 | 0.00 | 91 | 1011.1 |
| 20260507124822 | 25 | 252 | 0.0 | 1.6 | 0.00 | 0.00 | 0.00 | 91 | 1010.8 |
| 20260507124325 | 25 | 238 | 0.0 | 4.8 | 0.00 | 0.00 | 0.00 | 91 | 1010.8 |
| 20260507123810 | 25 | 225 | 0.0 | 4.8 | 0.00 | 0.00 | 0.00 | 91 | 1010.8 |
| 20260507123313 | 25 | 232 | 1.6 | 3.2 | 0.00 | 0.00 | 0.00 | 91 | 1010.6 |
| 20260507122816 | 25 | 192 | 0.0 | 3.2 | 0.00 | 0.00 | 0.00 | 91 | 1010.6 |
| 20260507122319 | 25 | 229 | 0.0 | 3.2 | 0.00 | 0.00 | 0.00 | 92 | 1010.6 |
| 20260507121823 | 25 | 207 | 0.0 | 3.2 | 0.00 | 0.00 | 0.00 | 92 | 1010.5 |
| 20260507121326 | 25 | 209 | 0.0 | 1.6 | 0.00 | 0.00 | 0.00 | 92 | 1010.5 |
| 20260507120813 | 25 | 245 | 0.0 | 3.2 | 0.00 | 0.00 | 0.00 | 92 | 1010.5 |
| 20260507120317 | 25 | 246 | 0.0 | 4.8 | 0.00 | 0.00 | 0.00 | 92 | 1010.1 |
| 20260507115824 | 25 | 239 | 1.6 | 4.8 | 0.00 | 0.00 | 0.00 | 92 | 1010.1 |
| 20260507115307 | 25 | 220 | 0.0 | 3.2 | 0.00 | 0.00 | 0.00 | 92 | 1010.1 |
| 20260507114813 | 25 | 190 | 0.0 | 3.2 | 0.00 | 0.00 | 0.00 | 92 | 1010.0 |
| 20260507114319 | 25 | 190 | 0.0 | 3.2 | 0.00 | 0.00 | 0.00 | 92 | 1010.0 |
| 20260507113822 | 25 | 190 | 0.0 | 3.2 | 0.00 | 0.00 | 0.00 | 92 | 1010.0 |
| 20260507113325 | 25 | 190 | 0.0 | 3.2 | 0.00 | 0.00 | 0.00 | 92 | 1009.8 |
| 20260507112828 | 25 | 231 | 0.0 | 1.6 | 0.00 | 0.00 | 0.00 | 92 | 1009.8 |
| 20260507112311 | 25 | 263 | 0.0 | 1.6 | 0.00 | 0.00 | 0.00 | 91 | 1009.8 |
| 20260507111814 | 25 | 191 | 0.0 | 3.2 | 0.00 | 0.00 | 0.00 | 91 | 1009.5 |
| 20260507111321 | 25 | 190 | 0.0 | 3.2 | 0.00 | 0.00 | 0.00 | 91 | 1009.5 |
| 20260507110825 | 25 | 178 | 0.0 | 1.6 | 0.00 | 0.00 | 0.00 | 91 | 1009.5 |
| 20260507110329 | 25 | 218 | 0.0 | 3.2 | 0.00 | 0.00 | 0.00 | 91 | 1009.5 |
| 20260507105812 | 25 | 234 | 0.0 | 3.2 | 0.00 | 0.00 | 0.00 | 91 | 1009.5 |
| 20260507105316 | 25 | 202 | 0.0 | 3.2 | 0.00 | 0.00 | 0.00 | 90 | 1009.5 |
| 20260507104820 | 25 | 202 | 0.0 | 3.2 | 0.00 | 0.00 | 0.00 | 90 | 1009.5 |
| 20260507104343 | 25 | 215 | 0.0 | 3.2 | 0.00 | 0.00 | 0.00 | 90 | 1009.5 |
| 20260507103825 | 25 | 223 | 0.0 | 3.2 | 0.00 | 0.00 | 0.00 | 90 | 1009.5 |
| 20260507103328 | 25 | 246 | 0.0 | 3.2 | 0.00 | 0.00 | 0.00 | 90 | 1009.2 |